Lihue, HI

2:26 PM HST on March 23, 2017 (GMT -1000)
Lihue

Weather History for PHLI - March, 2015

Change the Weather History Date:

Thursday, March 19, 2015

  Actual Average Record
Temperature  
Mean Temperature 73 °F 73 °F  
Max Temperature 78 °F 79 °F 85 °F (1961)
Min Temperature 67 °F 67 °F 58 °F (1955)
Degree Days  
Heating Degree Days 0 0  
Month to date heating degree days 0 0  
Since 1 July heating degree days 0 0  
Cooling Degree Days 8 8  
Month to date cooling degree days 126 140  
Year to date cooling degree days 582 535  
Growing Degree Days 20 (Base 50)    
Moisture  
Dew Point 65 °F    
Average Humidity 82    
Maximum Humidity 90    
Minimum Humidity 73    
Precipitation  
Precipitation 0.19 in 0.15 in 2.12 in (1976)
Month to date precipitation 0.63 2.82  
Year to date precipitation 2.54 9.73  
Snow  
Snow 0.00 in - - ()
Month to date snowfall 0.0  
Since 1 July snowfall 0.0  
Snow Depth 0.00 in    
Sea Level Pressure  
Sea Level Pressure 30.12 in    
Wind  
Wind Speed 14 mph (NNE)    
Max Wind Speed 24 mph    
Max Gust Speed 29 mph    
Visibility 8 miles    
Events Rain    
T = Trace of Precipitation, MM = Missing Value Source: NWS Daily Summary

Daily Weather History Graph

Daily Weather History Graph

Search for Another Location

Airport or City:

Trip Planner

Search our weather history database for the weather conditions in past years. The results will help you decide how hot, cold, wet, or windy it might be!

Date:

Astronomy

Mar. 19, 2015 Rise Set
Actual Time 6:42 AM HST 6:48 PM HST
Civil Twilight 6:20 AM HST 7:10 PM HST
Nautical Twilight 5:54 AM HST 7:36 PM HST
Astronomical Twilight 5:28 AM HST 8:02 PM HST
Moon 6:09 AM HST (3/19) 6:30 PM HST (3/19)
Length of Visible Light 12h 50m
Length of Day
12h 05m
Waning Crescent, 0% of the Moon is Illuminated
Mar 19
Waning Crescent
Mar 19
New
Mar 26
First Quarter
Apr 4
Full
Apr 11
Last Quarter

Hourly Weather History & Observations

Time (HST) Temp. Dew Point Humidity Pressure Visibility Wind Dir Wind Speed Gust Speed Precip Events Conditions
12:53 AM 70.0 °F 64.0 °F 81% 30.12 in 10.0 mi North 11.5 mph - N/A   Partly Cloudy
1:37 AM 69.8 °F 64.4 °F 83% 30.11 in 10.0 mi North 11.5 mph - N/A   Overcast
1:53 AM 70.0 °F 64.0 °F 81% 30.10 in 10.0 mi North 10.4 mph - N/A   Overcast
2:53 AM 69.1 °F 64.0 °F 84% 30.09 in 10.0 mi NNW 8.1 mph - N/A   Overcast
3:00 AM 69.8 °F 64.4 °F 83% 30.09 in 10.0 mi NNW 8.1 mph - N/A   Overcast
3:34 AM 69.8 °F 64.4 °F 83% 30.08 in 10.0 mi NNW 8.1 mph - N/A   Overcast
3:53 AM 69.1 °F 64.0 °F 84% 30.07 in 10.0 mi North 8.1 mph - N/A   Overcast
4:00 AM 69.8 °F 64.4 °F 83% 30.08 in 9.0 mi North 6.9 mph - N/A   Overcast
4:13 AM 69.8 °F 64.4 °F 83% 30.07 in 10.0 mi North 8.1 mph - N/A   Overcast
4:53 AM 68.0 °F 63.0 °F 84% 30.06 in 10.0 mi NW 6.9 mph - N/A   Overcast
5:53 AM 68.0 °F 63.0 °F 84% 30.08 in 10.0 mi NW 6.9 mph - N/A   Overcast
6:33 AM 68.0 °F 62.6 °F 83% 30.10 in 10.0 mi North 8.1 mph - N/A   Overcast
6:53 AM 68.0 °F 63.0 °F 84% 30.10 in 10.0 mi North 9.2 mph - N/A   Overcast
7:34 AM 68.0 °F 64.4 °F 88% 30.12 in 7.0 mi North 10.4 mph - 0.00 in Rain Light Rain
7:53 AM 69.1 °F 64.9 °F 87% 30.12 in 10.0 mi North 10.4 mph - 0.00 in Rain Light Rain
8:07 AM 69.8 °F 64.4 °F 83% 30.12 in 7.0 mi NNW 10.4 mph - 0.01 in Rain Rain
8:28 AM 69.8 °F 64.4 °F 83% 30.13 in 10.0 mi North 12.7 mph - 0.01 in   Overcast
8:34 AM 69.8 °F 64.4 °F 83% 30.13 in 7.0 mi North 11.5 mph - 0.01 in   Overcast
8:44 AM 69.8 °F 64.4 °F 83% 30.13 in 3.0 mi North 10.4 mph - 0.01 in Rain Light Rain
8:53 AM 69.1 °F 66.0 °F 90% 30.13 in 2.5 mi North 17.3 mph - 0.02 in Rain Heavy Rain
9:07 AM 69.8 °F 64.4 °F 83% 30.14 in 10.0 mi NNE 15.0 mph - 0.03 in Rain Light Rain
9:53 AM 70.0 °F 66.0 °F 87% 30.14 in 5.0 mi NE 12.7 mph - 0.03 in Rain Light Rain
10:53 AM 73.0 °F 66.0 °F 79% 30.14 in 10.0 mi ENE 13.8 mph - 0.00 in   Overcast
11:53 AM 73.9 °F 64.9 °F 73% 30.14 in 10.0 mi NNE 19.6 mph - N/A   Overcast
12:04 PM 71.6 °F 66.2 °F 83% 30.14 in 1.8 mi NNE 18.4 mph - 0.09 in Rain Heavy Rain
12:09 PM 71.6 °F 66.2 °F 83% 30.14 in 3.0 mi NNE 17.3 mph - 0.09 in Rain Light Rain
12:20 PM 73.4 °F 68.0 °F 83% 30.14 in 8.0 mi NNE 16.1 mph - 0.09 in Rain Light Rain
12:53 PM 72.0 °F 66.0 °F 81% 30.12 in 10.0 mi NE 13.8 mph - 0.09 in   Overcast
1:33 PM 71.6 °F 64.4 °F 78% 30.11 in 4.0 mi NE 20.7 mph - 0.01 in Rain Light Rain
1:44 PM 71.6 °F 66.2 °F 83% 30.11 in 2.5 mi NE 16.1 mph - 0.02 in Rain Rain
1:50 PM 71.6 °F 66.2 °F 83% 30.10 in 3.0 mi ENE 16.1 mph - 0.02 in Rain Light Rain
1:53 PM 72.0 °F 66.0 °F 81% 30.10 in 4.0 mi NE 18.4 mph - 0.03 in Rain Light Rain
2:05 PM 73.4 °F 66.2 °F 78% 30.09 in 10.0 mi NE 18.4 mph - 0.00 in Rain Light Rain
2:45 PM 71.6 °F 66.2 °F 83% 30.09 in 10.0 mi NNE 20.7 mph 26.5 mph 0.00 in Rain Light Rain
2:53 PM 73.0 °F 66.0 °F 79% 30.08 in 10.0 mi NNE 19.6 mph 28.8 mph 0.00 in Rain Light Rain
3:26 PM 71.6 °F 66.2 °F 83% 30.09 in 7.0 mi NE 23.0 mph 28.8 mph 0.00 in Rain Light Rain
3:33 PM 69.8 °F 64.4 °F 83% 30.09 in 3.0 mi NE 24.2 mph 28.8 mph 0.01 in Rain Light Rain
3:41 PM 69.8 °F 66.2 °F 88% 30.09 in 3.0 mi NNE 19.6 mph - 0.02 in Rain Rain
3:53 PM 71.1 °F 66.9 °F 87% 30.09 in 3.0 mi NNE 16.1 mph - 0.02 in Rain Light Rain
4:53 PM 71.1 °F 66.0 °F 84% 30.09 in 10.0 mi NNE 16.1 mph 23.0 mph 0.00 in Rain Light Rain
5:15 PM 73.4 °F 64.4 °F 73% 30.09 in 10.0 mi NNE 19.6 mph - 0.00 in   Overcast
5:53 PM 73.0 °F 64.9 °F 76% 30.10 in 10.0 mi NNE 18.4 mph - 0.00 in   Overcast
6:53 PM 72.0 °F 64.0 °F 76% 30.12 in 10.0 mi NE 16.1 mph - 0.00 in   Overcast
7:20 PM 71.6 °F 64.4 °F 78% 30.14 in 10.0 mi NNE 12.7 mph - N/A   Overcast
7:53 PM 71.1 °F 64.9 °F 81% 30.14 in 10.0 mi NNE 16.1 mph - N/A   Mostly Cloudy
8:26 PM 69.8 °F 64.4 °F 83% 30.16 in 9.0 mi NE 9.2 mph - N/A   Overcast
8:53 PM 71.1 °F 66.0 °F 84% 30.16 in 10.0 mi ENE 19.6 mph 25.3 mph 0.00 in   Overcast
9:03 PM 69.8 °F 64.4 °F 83% 30.17 in 8.0 mi NE 17.3 mph - 0.00 in Rain Light Rain
9:53 PM 71.1 °F 64.9 °F 81% 30.18 in 10.0 mi NE 13.8 mph - 0.00 in   Overcast
10:23 PM 71.6 °F 66.2 °F 83% 30.18 in 10.0 mi NE 12.7 mph - N/A   Overcast
10:53 PM 72.0 °F 64.9 °F 78% 30.17 in 10.0 mi NE 17.3 mph - N/A   Overcast
11:37 PM 71.6 °F 64.4 °F 78% 30.17 in 10.0 mi ENE 17.3 mph - N/A   Overcast
11:45 PM 71.6 °F 64.4 °F 78% 30.17 in 10.0 mi ENE 16.1 mph - N/A   Overcast
11:53 PM 72.0 °F 63.0 °F 73% 30.17 in 10.0 mi NE 12.7 mph - N/A   Mostly Cloudy